Location: Deerlick Astronomy Village
(33.5614°N, 82.7631°W)
Time: 19:16:34
(UTC-04:00)

Iridium 66 - Visible Passes

Search period start: 30 July 2014 00:00
Search period end: 09 August 2014 00:00
Orbit: 776 x 779 km, 86.4° (Epoch: 30 July)

Date Brightness Start Highest point End Pass type
(mag) Time Alt. Az. Time Alt. Az. Time Alt. Az.
30 Jul 8.0 01:33:20 25° N 01:33:20 25° N 01:35:27 10° N visible
31 Jul 8.1 00:59:56 22° NNE 00:59:56 22° NNE 01:01:49 10° NNE visible
31 Jul 8.7 02:40:24 10° NW 02:40:24 10° NW 02:40:27 10° NW visible
01 Aug 8.4 00:26:30 16° NE 00:26:30 16° NE 00:27:43 10° NNE visible
01 Aug 8.4 02:06:59 17° NW 02:06:59 17° NW 02:08:23 10° NNW visible
02 Aug 8.2 01:33:33 22° NNW 01:33:33 22° NNW 01:35:26 10° N visible
03 Aug 8.1 01:00:07 23° N 01:00:07 23° N 01:02:01 10° N visible
04 Aug 8.2 00:26:41 19° NNE 00:26:41 19° NNE 00:28:13 10° NNE visible
04 Aug 8.7 02:07:09 12° NW 02:07:09 12° NW 02:07:47 10° NW visible
04 Aug 8.5 23:53:14 12° NE 23:53:14 12° NE 23:53:52 10° NE visible
05 Aug 8.4 01:33:42 18° NNW 01:33:42 18° NNW 01:35:14 10° NNW visible
06 Aug 8.2 01:00:15 22° N 01:00:15 22° N 01:02:05 10° N visible
07 Aug 8.1 00:26:48 21° NNE 00:26:48 21° NNE 00:28:31 10° N visible
07 Aug 8.3 23:53:20 16° NNE 23:53:20 16° NNE 23:54:32 10° NNE visible
08 Aug 8.6 01:33:48 14° NW 01:33:48 14° NW 01:34:50 10° NNW visible
